owner,sensor,date,latitude,longitude,air_temperature,qcFlag 
COMPS,ioos:station:USF.COMPS:C10:1,2015-06-01T00:05:00Z,27.1690,-82.9260,28.0,1111122 
COMPS,ioos:station:USF.COMPS:C10:1,2015-06-01T00:35:00Z,27.1690,-82.9260,27.87,1111122 
COMPS,ioos:station:USF.COMPS:C10:1,2015-06-01T01:05:00Z,27.1690,-82.9260,27.95,1111122 
COMPS,ioos:station:USF.COMPS:C10:1,2015-06-01T01:35:00Z,27.1690,-82.9260,27.92,1111122 
COMPS,ioos:station:USF.COMPS:C10:1,2015-06-01T02:05:00Z,27.1690,-82.9260,27.78,1111122 
COMPS,ioos:station:USF.COMPS:C10:1,2015-06-01T02:35:00Z,27.1690,-82.9260,25.84,1111122 
COMPS,ioos:station:USF.COMPS:C10:1,2015-06-01T04:05:00Z,27.1690,-82.9260,26.24,1111122 
COMPS,ioos:station:USF.COMPS:C10:1,2015-06-01T04:35:00Z,27.1690,-82.9260,26.55,1111122 
COMPS,ioos:station:USF.COMPS:C10:1,2015-06-01T05:05:00Z,27.1690,-82.9260,26.76,1111122 
COMPS,ioos:station:USF.COMPS:C10:1,2015-06-01T05:35:00Z,27.1690,-82.9260,26.73,1111122 
COMPS,ioos:station:USF.COMPS:C10:1,2015-06-01T06:05:00Z,27.1690,-82.9260,26.76,1111122 
COMPS,ioos:station:USF.COMPS:C10:1,2015-06-01T06:35:00Z,27.1690,-82.9260,26.73,1111122 
COMPS,ioos:station:USF.COMPS:C10:1,2015-06-01T07:05:00Z,27.1690,-82.9260,26.62,1111122 
COMPS,ioos:station:USF.COMPS:C10:1,2015-06-01T07:35:00Z,27.1690,-82.9260,26.69,1111122 
COMPS,ioos:station:USF.COMPS:C10:1,2015-06-01T08:05:00Z,27.1690,-82.9260,26.8,1111122 
COMPS,ioos:station:USF.COMPS:C10:1,2015-06-01T08:35:00Z,27.1690,-82.9260,26.25,1111122 
COMPS,ioos:station:USF.COMPS:C10:1,2015-06-01T09:05:00Z,27.1690,-82.9260,26.19,1111122 
COMPS,ioos:station:USF.COMPS:C10:1,2015-06-01T09:35:00Z,27.1690,-82.9260,26.33,1111122 
COMPS,ioos:station:USF.COMPS:C10:1,2015-06-01T10:05:00Z,27.1690,-82.9260,26.91,1111122 
COMPS,ioos:station:USF.COMPS:C10:1,2015-06-01T10:35:00Z,27.1690,-82.9260,27.0,1111122 
COMPS,ioos:station:USF.COMPS:C10:1,2015-06-01T11:05:00Z,27.1690,-82.9260,27.1,1111122 
COMPS,ioos:station:USF.COMPS:C10:1,2015-06-01T11:35:00Z,27.1690,-82.9260,27.38,1111122 
COMPS,ioos:station:USF.COMPS:C10:1,2015-06-01T12:05:00Z,27.1690,-82.9260,27.32,1111122 
COMPS,ioos:station:USF.COMPS:C10:1,2015-06-01T12:35:00Z,27.1690,-82.9260,27.29,1111122 
COMPS,ioos:station:USF.COMPS:C10:1,2015-06-01T13:05:00Z,27.1690,-82.9260,27.4,1111122 
COMPS,ioos:station:USF.COMPS:C10:1,2015-06-01T13:35:00Z,27.1690,-82.9260,27.37,1111122 
COMPS,ioos:station:USF.COMPS:C10:1,2015-06-01T14:05:00Z,27.1690,-82.9260,27.35,1111122 
COMPS,ioos:station:USF.COMPS:C10:1,2015-06-01T14:35:00Z,27.1690,-82.9260,27.48,1111122 
COMPS,ioos:station:USF.COMPS:C10:1,2015-06-01T15:05:00Z,27.1690,-82.9260,27.43,1111122 
COMPS,ioos:station:USF.COMPS:C10:1,2015-06-01T15:35:00Z,27.1690,-82.9260,27.5,1111122 
COMPS,ioos:station:USF.COMPS:C10:1,2015-06-01T16:05:00Z,27.1690,-82.9260,27.63,1111122 
COMPS,ioos:station:USF.COMPS:C10:1,2015-06-01T16:35:00Z,27.1690,-82.9260,27.71,1111122 
COMPS,ioos:station:USF.COMPS:C10:1,2015-06-01T17:05:00Z,27.1690,-82.9260,27.68,1111122 
COMPS,ioos:station:USF.COMPS:C10:1,2015-06-01T17:35:00Z,27.1690,-82.9260,27.67,1111122 
COMPS,ioos:station:USF.COMPS:C10:1,2015-06-01T18:05:00Z,27.1690,-82.9260,27.64,1111122 
COMPS,ioos:station:USF.COMPS:C10:1,2015-06-01T18:35:00Z,27.1690,-82.9260,27.73,1111122 
COMPS,ioos:station:USF.COMPS:C10:1,2015-06-01T19:05:00Z,27.1690,-82.9260,27.74,1111122 
COMPS,ioos:station:USF.COMPS:C10:1,2015-06-01T19:35:00Z,27.1690,-82.9260,27.75,1111122 
COMPS,ioos:station:USF.COMPS:C10:1,2015-06-01T20:05:00Z,27.1690,-82.9260,27.76,1111122 
COMPS,ioos:station:USF.COMPS:C10:1,2015-06-01T20:35:00Z,27.1690,-82.9260,27.82,1111122 
COMPS,ioos:station:USF.COMPS:C10:1,2015-06-01T21:05:00Z,27.1690,-82.9260,27.92,1111122 
COMPS,ioos:station:USF.COMPS:C10:1,2015-06-01T21:35:00Z,27.1690,-82.9260,27.9,1111122 
COMPS,ioos:station:USF.COMPS:C10:1,2015-06-01T22:05:00Z,27.1690,-82.9260,27.86,1111122 
COMPS,ioos:station:USF.COMPS:C10:1,2015-06-01T22:35:00Z,27.1690,-82.9260,27.91,1111122 
COMPS,ioos:station:USF.COMPS:C10:1,2015-06-02T00:05:00Z,27.1690,-82.9260,27.83,1111122 
COMPS,ioos:station:USF.COMPS:C10:1,2015-06-02T00:35:00Z,27.1690,-82.9260,27.68,1111122 
COMPS,ioos:station:USF.COMPS:C10:1,2015-06-02T01:05:00Z,27.1690,-82.9260,27.64,1111122 
COMPS,ioos:station:USF.COMPS:C10:1,2015-06-02T01:35:00Z,27.1690,-82.9260,27.63,1111122 
COMPS,ioos:station:USF.COMPS:C10:1,2015-06-02T02:05:00Z,27.1690,-82.9260,27.68,1111122 
COMPS,ioos:station:USF.COMPS:C10:1,2015-06-02T02:35:00Z,27.1690,-82.9260,27.64,1111122 
COMPS,ioos:station:USF.COMPS:C10:1,2015-06-02T03:05:00Z,27.1690,-82.9260,27.23,1111122 
COMPS,ioos:station:USF.COMPS:C10:1,2015-06-02T03:35:00Z,27.1690,-82.9260,25.83,1111122 
COMPS,ioos:station:USF.COMPS:C10:1,2015-06-02T04:05:00Z,27.1690,-82.9260,26.02,1111122 
COMPS,ioos:station:USF.COMPS:C10:1,2015-06-02T04:35:00Z,27.1690,-82.9260,26.32,1111122 
COMPS,ioos:station:USF.COMPS:C10:1,2015-06-02T05:05:00Z,27.1690,-82.9260,26.59,1111122 
COMPS,ioos:station:USF.COMPS:C10:1,2015-06-02T05:35:00Z,27.1690,-82.9260,26.52,1111122 
COMPS,ioos:station:USF.COMPS:C10:1,2015-06-02T06:05:00Z,27.1690,-82.9260,26.52,1111122 
COMPS,ioos:station:USF.COMPS:C10:1,2015-06-02T06:35:00Z,27.1690,-82.9260,26.59,1111122 
COMPS,ioos:station:USF.COMPS:C10:1,2015-06-02T07:05:00Z,27.1690,-82.9260,27.08,1111122 
COMPS,ioos:station:USF.COMPS:C10:1,2015-06-02T07:35:00Z,27.1690,-82.9260,26.91,1111122 
COMPS,ioos:station:USF.COMPS:C10:1,2015-06-02T08:05:00Z,27.1690,-82.9260,26.94,1111122 
COMPS,ioos:station:USF.COMPS:C10:1,2015-06-02T08:35:00Z,27.1690,-82.9260,26.99,1111122 
COMPS,ioos:station:USF.COMPS:C10:1,2015-06-02T09:05:00Z,27.1690,-82.9260,26.95,1111122 
COMPS,ioos:station:USF.COMPS:C10:1,2015-06-02T09:35:00Z,27.1690,-82.9260,27.14,1111122 
COMPS,ioos:station:USF.COMPS:C10:1,2015-06-02T10:05:00Z,27.1690,-82.9260,27.19,1111122 
COMPS,ioos:station:USF.COMPS:C10:1,2015-06-02T10:35:00Z,27.1690,-82.9260,27.13,1111122 
COMPS,ioos:station:USF.COMPS:C10:1,2015-06-02T11:05:00Z,27.1690,-82.9260,27.2,1111122 
COMPS,ioos:station:USF.COMPS:C10:1,2015-06-02T11:35:00Z,27.1690,-82.9260,27.18,1111122 
COMPS,ioos:station:USF.COMPS:C10:1,2015-06-02T12:05:00Z,27.1690,-82.9260,26.61,1111122 
COMPS,ioos:station:USF.COMPS:C10:1,2015-06-02T12:35:00Z,27.1690,-82.9260,25.59,1111122 
COMPS,ioos:station:USF.COMPS:C10:1,2015-06-02T13:05:00Z,27.1690,-82.9260,25.58,1111122 
COMPS,ioos:station:USF.COMPS:C10:1,2015-06-02T13:35:00Z,27.1690,-82.9260,26.11,1111122 
COMPS,ioos:station:USF.COMPS:C10:1,2015-06-02T14:05:00Z,27.1690,-82.9260,24.79,1111122 
COMPS,ioos:station:USF.COMPS:C10:1,2015-06-02T14:35:00Z,27.1690,-82.9260,24.95,1111122 
COMPS,ioos:station:USF.COMPS:C10:1,2015-06-02T15:05:00Z,27.1690,-82.9260,25.69,1111122 
COMPS,ioos:station:USF.COMPS:C10:1,2015-06-02T15:35:00Z,27.1690,-82.9260,25.19,1111122 
COMPS,ioos:station:USF.COMPS:C10:1,2015-06-02T16:05:00Z,27.1690,-82.9260,23.7,1111122 
COMPS,ioos:station:USF.COMPS:C10:1,2015-06-02T16:35:00Z,27.1690,-82.9260,23.74,1111122 
COMPS,ioos:station:USF.COMPS:C10:1,2015-06-02T17:05:00Z,27.1690,-82.9260,23.78,1111122 
COMPS,ioos:station:USF.COMPS:C10:1,2015-06-02T17:35:00Z,27.1690,-82.9260,23.47,1111122 
COMPS,ioos:station:USF.COMPS:C10:1,2015-06-02T18:05:00Z,27.1690,-82.9260,23.4,1111122 
COMPS,ioos:station:USF.COMPS:C10:1,2015-06-02T18:35:00Z,27.1690,-82.9260,23.34,1111122 
COMPS,ioos:station:USF.COMPS:C10:1,2015-06-02T19:05:00Z,27.1690,-82.9260,23.42,1111122 
COMPS,ioos:station:USF.COMPS:C10:1,2015-06-02T19:35:00Z,27.1690,-82.9260,23.58,1111122 
COMPS,ioos:station:USF.COMPS:C10:1,2015-06-02T20:05:00Z,27.1690,-82.9260,23.89,1111122 
COMPS,ioos:station:USF.COMPS:C10:1,2015-06-02T20:35:00Z,27.1690,-82.9260,24.05,1111122 
COMPS,ioos:station:USF.COMPS:C10:1,2015-06-02T21:05:00Z,27.1690,-82.9260,24.19,1111122 
COMPS,ioos:station:USF.COMPS:C10:1,2015-06-02T21:35:00Z,27.1690,-82.9260,24.24,1111122 
COMPS,ioos:station:USF.COMPS:C10:1,2015-06-02T22:05:00Z,27.1690,-82.9260,24.33,1111122 
COMPS,ioos:station:USF.COMPS:C10:1,2015-06-02T22:35:00Z,27.1690,-82.9260,24.25,1111122 
COMPS,ioos:station:USF.COMPS:C10:1,2015-06-02T23:05:00Z,27.1690,-82.9260,24.49,1111122 
COMPS,ioos:station:USF.COMPS:C10:1,2015-06-02T23:35:00Z,27.1690,-82.9260,24.77,1111122 
COMPS,ioos:station:USF.COMPS:C10:1,2015-06-03T00:05:00Z,27.1690,-82.9260,24.83,1111122 
COMPS,ioos:station:USF.COMPS:C10:1,2015-06-03T00:35:00Z,27.1690,-82.9260,24.9,1111122 
COMPS,ioos:station:USF.COMPS:C10:1,2015-06-03T01:05:00Z,27.1690,-82.9260,25.28,1111122 
COMPS,ioos:station:USF.COMPS:C10:1,2015-06-03T01:35:00Z,27.1690,-82.9260,25.73,1111122 
COMPS,ioos:station:USF.COMPS:C10:1,2015-06-03T04:05:00Z,27.1690,-82.9260,24.11,1111122 
COMPS,ioos:station:USF.COMPS:C10:1,2015-06-03T04:35:00Z,27.1690,-82.9260,24.61,1111122 
COMPS,ioos:station:USF.COMPS:C10:1,2015-06-03T05:05:00Z,27.1690,-82.9260,25.13,1111122 
COMPS,ioos:station:USF.COMPS:C10:1,2015-06-03T05:35:00Z,27.1690,-82.9260,25.58,1111122 
COMPS,ioos:station:USF.COMPS:C10:1,2015-06-03T06:05:00Z,27.1690,-82.9260,26.11,1111122 
COMPS,ioos:station:USF.COMPS:C10:1,2015-06-03T06:35:00Z,27.1690,-82.9260,26.29,1111122 
COMPS,ioos:station:USF.COMPS:C10:1,2015-06-03T07:05:00Z,27.1690,-82.9260,26.58,1111122 
COMPS,ioos:station:USF.COMPS:C10:1,2015-06-03T07:35:00Z,27.1690,-82.9260,26.71,1111122 
COMPS,ioos:station:USF.COMPS:C10:1,2015-06-03T08:05:00Z,27.1690,-82.9260,26.59,1111122 
COMPS,ioos:station:USF.COMPS:C10:1,2015-06-03T08:35:00Z,27.1690,-82.9260,26.09,1111122 
COMPS,ioos:station:USF.COMPS:C10:1,2015-06-03T09:05:00Z,27.1690,-82.9260,26.18,1111122 
COMPS,ioos:station:USF.COMPS:C10:1,2015-06-03T09:35:00Z,27.1690,-82.9260,25.84,1111122 
COMPS,ioos:station:USF.COMPS:C10:1,2015-06-03T10:05:00Z,27.1690,-82.9260,25.55,1111122 
COMPS,ioos:station:USF.COMPS:C10:1,2015-06-03T10:35:00Z,27.1690,-82.9260,25.53,1111122 
COMPS,ioos:station:USF.COMPS:C10:1,2015-06-03T11:05:00Z,27.1690,-82.9260,25.62,1111122 
COMPS,ioos:station:USF.COMPS:C10:1,2015-06-03T11:35:00Z,27.1690,-82.9260,25.38,1111122 
COMPS,ioos:station:USF.COMPS:C10:1,2015-06-03T12:05:00Z,27.1690,-82.9260,25.69,1111122 
COMPS,ioos:station:USF.COMPS:C10:1,2015-06-03T12:35:00Z,27.1690,-82.9260,25.44,1111122 
COMPS,ioos:station:USF.COMPS:C10:1,2015-06-03T13:05:00Z,27.1690,-82.9260,25.48,1111122 
COMPS,ioos:station:USF.COMPS:C10:1,2015-06-03T13:35:00Z,27.1690,-82.9260,25.32,1111122 
COMPS,ioos:station:USF.COMPS:C10:1,2015-06-03T14:05:00Z,27.1690,-82.9260,25.16,1111122 
COMPS,ioos:station:USF.COMPS:C10:1,2015-06-03T14:35:00Z,27.1690,-82.9260,25.11,1111122 
COMPS,ioos:station:USF.COMPS:C10:1,2015-06-03T15:05:00Z,27.1690,-82.9260,25.01,1111122 
COMPS,ioos:station:USF.COMPS:C10:1,2015-06-03T15:35:00Z,27.1690,-82.9260,25.12,1111122 
COMPS,ioos:station:USF.COMPS:C10:1,2015-06-03T16:05:00Z,27.1690,-82.9260,25.45,1111122 
COMPS,ioos:station:USF.COMPS:C10:1,2015-06-03T16:35:00Z,27.1690,-82.9260,25.75,1111122 
COMPS,ioos:station:USF.COMPS:C10:1,2015-06-03T17:05:00Z,27.1690,-82.9260,25.83,1111122 
COMPS,ioos:station:USF.COMPS:C10:1,2015-06-03T17:35:00Z,27.1690,-82.9260,25.95,1111122 
COMPS,ioos:station:USF.COMPS:C10:1,2015-06-03T18:05:00Z,27.1690,-82.9260,26.22,1111122 
COMPS,ioos:station:USF.COMPS:C10:1,2015-06-03T18:35:00Z,27.1690,-82.9260,26.2,1111122 
COMPS,ioos:station:USF.COMPS:C10:1,2015-06-03T19:05:00Z,27.1690,-82.9260,26.77,1111122 
COMPS,ioos:station:USF.COMPS:C10:1,2015-06-03T19:35:00Z,27.1690,-82.9260,26.7,1111122 
COMPS,ioos:station:USF.COMPS:C10:1,2015-06-03T20:05:00Z,27.1690,-82.9260,26.78,1111122 
COMPS,ioos:station:USF.COMPS:C10:1,2015-06-03T20:35:00Z,27.1690,-82.9260,26.76,1111122 
COMPS,ioos:station:USF.COMPS:C10:1,2015-06-03T21:05:00Z,27.1690,-82.9260,27.0,1111122 
COMPS,ioos:station:USF.COMPS:C10:1,2015-06-03T21:35:00Z,27.1690,-82.9260,27.08,1111122 
COMPS,ioos:station:USF.COMPS:C10:1,2015-06-03T22:05:00Z,27.1690,-82.9260,27.18,1111122 
COMPS,ioos:station:USF.COMPS:C10:1,2015-06-03T22:35:00Z,27.1690,-82.9260,27.7,1111122 
COMPS,ioos:station:USF.COMPS:C10:1,2015-06-03T23:05:00Z,27.1690,-82.9260,27.4,1111122 
COMPS,ioos:station:USF.COMPS:C10:1,2015-06-03T23:35:00Z,27.1690,-82.9260,27.32,1111122 
COMPS,ioos:station:USF.COMPS:C10:1,2015-06-04T04:05:00Z,27.1690,-82.9260,27.32,1111122 
COMPS,ioos:station:USF.COMPS:C10:1,2015-06-04T04:35:00Z,27.1690,-82.9260,27.5,1111122 
COMPS,ioos:station:USF.COMPS:C10:1,2015-06-04T05:05:00Z,27.1690,-82.9260,27.36,1111122 
COMPS,ioos:station:USF.COMPS:C10:1,2015-06-04T05:35:00Z,27.1690,-82.9260,27.21,1111122 
COMPS,ioos:station:USF.COMPS:C10:1,2015-06-04T06:05:00Z,27.1690,-82.9260,26.95,1111122 
COMPS,ioos:station:USF.COMPS:C10:1,2015-06-04T06:35:00Z,27.1690,-82.9260,26.9,1111122 
COMPS,ioos:station:USF.COMPS:C10:1,2015-06-04T07:05:00Z,27.1690,-82.9260,26.84,1111122 
COMPS,ioos:station:USF.COMPS:C10:1,2015-06-04T07:35:00Z,27.1690,-82.9260,26.87,1111122 
COMPS,ioos:station:USF.COMPS:C10:1,2015-06-04T08:05:00Z,27.1690,-82.9260,26.85,1111122 
COMPS,ioos:station:USF.COMPS:C10:1,2015-06-04T08:35:00Z,27.1690,-82.9260,26.96,1111122 
COMPS,ioos:station:USF.COMPS:C10:1,2015-06-04T09:05:00Z,27.1690,-82.9260,26.73,1111122 
COMPS,ioos:station:USF.COMPS:C10:1,2015-06-04T09:35:00Z,27.1690,-82.9260,26.61,1111122 
COMPS,ioos:station:USF.COMPS:C10:1,2015-06-04T10:05:00Z,27.1690,-82.9260,26.38,1111122 
COMPS,ioos:station:USF.COMPS:C10:1,2015-06-04T10:35:00Z,27.1690,-82.9260,26.32,1111122 
COMPS,ioos:station:USF.COMPS:C10:1,2015-06-04T11:05:00Z,27.1690,-82.9260,26.27,1111122 
COMPS,ioos:station:USF.COMPS:C10:1,2015-06-04T11:35:00Z,27.1690,-82.9260,26.41,1111122 
COMPS,ioos:station:USF.COMPS:C10:1,2015-06-04T12:05:00Z,27.1690,-82.9260,26.31,1111122 
COMPS,ioos:station:USF.COMPS:C10:1,2015-06-04T12:35:00Z,27.1690,-82.9260,26.18,1111122 
COMPS,ioos:station:USF.COMPS:C10:1,2015-06-04T13:05:00Z,27.1690,-82.9260,26.21,1111122 
COMPS,ioos:station:USF.COMPS:C10:1,2015-06-04T13:35:00Z,27.1690,-82.9260,26.2,1111122 
COMPS,ioos:station:USF.COMPS:C10:1,2015-06-04T14:05:00Z,27.1690,-82.9260,26.2,1111122 
COMPS,ioos:station:USF.COMPS:C10:1,2015-06-04T14:35:00Z,27.1690,-82.9260,26.44,1111122 
COMPS,ioos:station:USF.COMPS:C10:1,2015-06-04T15:05:00Z,27.1690,-82.9260,26.28,1111122 
COMPS,ioos:station:USF.COMPS:C10:1,2015-06-04T15:35:00Z,27.1690,-82.9260,26.49,1111122 
COMPS,ioos:station:USF.COMPS:C10:1,2015-06-04T16:05:00Z,27.1690,-82.9260,26.69,1111122 
COMPS,ioos:station:USF.COMPS:C10:1,2015-06-04T16:35:00Z,27.1690,-82.9260,26.94,1111122 
COMPS,ioos:station:USF.COMPS:C10:1,2015-06-04T18:05:00Z,27.1690,-82.9260,27.42,1111122 
COMPS,ioos:station:USF.COMPS:C10:1,2015-06-04T18:35:00Z,27.1690,-82.9260,27.66,1111122 
COMPS,ioos:station:USF.COMPS:C10:1,2015-06-04T19:05:00Z,27.1690,-82.9260,27.86,1111122 
COMPS,ioos:station:USF.COMPS:C10:1,2015-06-04T19:35:00Z,27.1690,-82.9260,27.98,1111122 
COMPS,ioos:station:USF.COMPS:C10:1,2015-06-04T20:05:00Z,27.1690,-82.9260,28.19,1111122 
COMPS,ioos:station:USF.COMPS:C10:1,2015-06-04T20:35:00Z,27.1690,-82.9260,28.34,1111122 
COMPS,ioos:station:USF.COMPS:C10:1,2015-06-04T21:05:00Z,27.1690,-82.9260,28.3,1111122 
COMPS,ioos:station:USF.COMPS:C10:1,2015-06-04T21:35:00Z,27.1690,-82.9260,28.35,1111122 
COMPS,ioos:station:USF.COMPS:C10:1,2015-06-04T22:05:00Z,27.1690,-82.9260,28.3,1111122 
COMPS,ioos:station:USF.COMPS:C10:1,2015-06-04T22:35:00Z,27.1690,-82.9260,28.32,1111122 
COMPS,ioos:station:USF.COMPS:C10:1,2015-06-04T23:05:00Z,27.1690,-82.9260,28.38,1111122 
COMPS,ioos:station:USF.COMPS:C10:1,2015-06-04T23:35:00Z,27.1690,-82.9260,28.35,1111122 
COMPS,ioos:station:USF.COMPS:C10:1,2015-06-05T00:05:00Z,27.1690,-82.9260,28.17,1111122 
COMPS,ioos:station:USF.COMPS:C10:1,2015-06-05T00:35:00Z,27.1690,-82.9260,28.15,1111122 
COMPS,ioos:station:USF.COMPS:C10:1,2015-06-05T04:05:00Z,27.1690,-82.9260,28.47,1111122 
COMPS,ioos:station:USF.COMPS:C10:1,2015-06-05T04:35:00Z,27.1690,-82.9260,28.27,1111122 
COMPS,ioos:station:USF.COMPS:C10:1,2015-06-05T05:05:00Z,27.1690,-82.9260,27.84,1111122 
COMPS,ioos:station:USF.COMPS:C10:1,2015-06-05T05:35:00Z,27.1690,-82.9260,27.85,1111122 
COMPS,ioos:station:USF.COMPS:C10:1,2015-06-05T06:05:00Z,27.1690,-82.9260,27.71,1111122 
COMPS,ioos:station:USF.COMPS:C10:1,2015-06-05T06:35:00Z,27.1690,-82.9260,27.32,1111122 
COMPS,ioos:station:USF.COMPS:C10:1,2015-06-05T07:05:00Z,27.1690,-82.9260,26.9,1111122 
COMPS,ioos:station:USF.COMPS:C10:1,2015-06-05T07:35:00Z,27.1690,-82.9260,26.76,1111122 
COMPS,ioos:station:USF.COMPS:C10:1,2015-06-05T08:05:00Z,27.1690,-82.9260,26.75,1111122 
COMPS,ioos:station:USF.COMPS:C10:1,2015-06-05T08:35:00Z,27.1690,-82.9260,26.65,1111122 
COMPS,ioos:station:USF.COMPS:C10:1,2015-06-05T09:05:00Z,27.1690,-82.9260,26.61,1111122 
COMPS,ioos:station:USF.COMPS:C10:1,2015-06-05T09:35:00Z,27.1690,-82.9260,26.61,1111122 
COMPS,ioos:station:USF.COMPS:C10:1,2015-06-05T10:05:00Z,27.1690,-82.9260,26.37,1111122 
COMPS,ioos:station:USF.COMPS:C10:1,2015-06-05T10:35:00Z,27.1690,-82.9260,26.43,1111122 
COMPS,ioos:station:USF.COMPS:C10:1,2015-06-05T11:05:00Z,27.1690,-82.9260,26.54,1111122 
COMPS,ioos:station:USF.COMPS:C10:1,2015-06-05T11:35:00Z,27.1690,-82.9260,26.78,1111122 
COMPS,ioos:station:USF.COMPS:C10:1,2015-06-05T12:05:00Z,27.1690,-82.9260,26.78,1111122 
COMPS,ioos:station:USF.COMPS:C10:1,2015-06-05T12:35:00Z,27.1690,-82.9260,26.88,1111122 
COMPS,ioos:station:USF.COMPS:C10:1,2015-06-05T13:05:00Z,27.1690,-82.9260,26.92,1111122 
COMPS,ioos:station:USF.COMPS:C10:1,2015-06-05T13:35:00Z,27.1690,-82.9260,27.06,1111122 
COMPS,ioos:station:USF.COMPS:C10:1,2015-06-05T14:05:00Z,27.1690,-82.9260,27.12,1111122 
COMPS,ioos:station:USF.COMPS:C10:1,2015-06-05T14:35:00Z,27.1690,-82.9260,27.13,1111122 
COMPS,ioos:station:USF.COMPS:C10:1,2015-06-05T15:05:00Z,27.1690,-82.9260,27.0,1111122 
COMPS,ioos:station:USF.COMPS:C10:1,2015-06-05T15:35:00Z,27.1690,-82.9260,27.04,1111122 
COMPS,ioos:station:USF.COMPS:C10:1,2015-06-05T16:05:00Z,27.1690,-82.9260,27.21,1111122 
COMPS,ioos:station:USF.COMPS:C10:1,2015-06-05T16:35:00Z,27.1690,-82.9260,27.37,1111122 
COMPS,ioos:station:USF.COMPS:C10:1,2015-06-05T17:05:00Z,27.1690,-82.9260,27.46,1111122 
COMPS,ioos:station:USF.COMPS:C10:1,2015-06-05T17:35:00Z,27.1690,-82.9260,27.43,1111122 
COMPS,ioos:station:USF.COMPS:C10:1,2015-06-05T18:05:00Z,27.1690,-82.9260,27.64,1111122 
COMPS,ioos:station:USF.COMPS:C10:1,2015-06-05T18:35:00Z,27.1690,-82.9260,27.96,1111122 
COMPS,ioos:station:USF.COMPS:C10:1,2015-06-05T19:05:00Z,27.1690,-82.9260,27.99,1111122 
COMPS,ioos:station:USF.COMPS:C10:1,2015-06-05T19:35:00Z,27.1690,-82.9260,28.36,1111122 
COMPS,ioos:station:USF.COMPS:C10:1,2015-06-05T20:05:00Z,27.1690,-82.9260,28.45,1111122 
COMPS,ioos:station:USF.COMPS:C10:1,2015-06-05T20:35:00Z,27.1690,-82.9260,28.66,1111122 
COMPS,ioos:station:USF.COMPS:C10:1,2015-06-05T21:05:00Z,27.1690,-82.9260,28.57,1111122 
COMPS,ioos:station:USF.COMPS:C10:1,2015-06-05T21:35:00Z,27.1690,-82.9260,28.67,1111122 
COMPS,ioos:station:USF.COMPS:C10:1,2015-06-05T23:05:00Z,27.1690,-82.9260,28.75,1111122 
COMPS,ioos:station:USF.COMPS:C10:1,2015-06-05T23:35:00Z,27.1690,-82.9260,28.67,1111122 
COMPS,ioos:station:USF.COMPS:C10:1,2015-06-06T00:05:00Z,27.1690,-82.9260,28.43,1111122 
COMPS,ioos:station:USF.COMPS:C10:1,2015-06-06T00:35:00Z,27.1690,-82.9260,28.53,1111122 
COMPS,ioos:station:USF.COMPS:C10:1,2015-06-06T01:05:00Z,27.1690,-82.9260,28.47,1111122 
COMPS,ioos:station:USF.COMPS:C10:1,2015-06-06T01:35:00Z,27.1690,-82.9260,28.61,1111122 
COMPS,ioos:station:USF.COMPS:C10:1,2015-06-06T02:05:00Z,27.1690,-82.9260,27.99,1111122 
COMPS,ioos:station:USF.COMPS:C10:1,2015-06-06T02:35:00Z,27.1690,-82.9260,27.26,1111122 
COMPS,ioos:station:USF.COMPS:C10:1,2015-06-06T03:05:00Z,27.1690,-82.9260,27.23,1111122 
COMPS,ioos:station:USF.COMPS:C10:1,2015-06-06T03:35:00Z,27.1690,-82.9260,27.36,1111122 
COMPS,ioos:station:USF.COMPS:C10:1,2015-06-06T04:05:00Z,27.1690,-82.9260,27.5,1111122 
COMPS,ioos:station:USF.COMPS:C10:1,2015-06-06T04:35:00Z,27.1690,-82.9260,27.78,1111122 
COMPS,ioos:station:USF.COMPS:C10:1,2015-06-06T05:05:00Z,27.1690,-82.9260,27.59,1111122 
COMPS,ioos:station:USF.COMPS:C10:1,2015-06-06T05:35:00Z,27.1690,-82.9260,27.53,1111122 
COMPS,ioos:station:USF.COMPS:C10:1,2015-06-06T06:05:00Z,27.1690,-82.9260,27.25,1111122 
COMPS,ioos:station:USF.COMPS:C10:1,2015-06-06T06:35:00Z,27.1690,-82.9260,27.8,1111122 
COMPS,ioos:station:USF.COMPS:C10:1,2015-06-06T07:05:00Z,27.1690,-82.9260,27.59,1111122 
COMPS,ioos:station:USF.COMPS:C10:1,2015-06-06T07:35:00Z,27.1690,-82.9260,27.59,1111122 
COMPS,ioos:station:USF.COMPS:C10:1,2015-06-06T08:05:00Z,27.1690,-82.9260,27.55,1111122 
COMPS,ioos:station:USF.COMPS:C10:1,2015-06-06T08:35:00Z,27.1690,-82.9260,27.51,1111122 
COMPS,ioos:station:USF.COMPS:C10:1,2015-06-06T09:05:00Z,27.1690,-82.9260,27.56,1111122 
COMPS,ioos:station:USF.COMPS:C10:1,2015-06-06T09:35:00Z,27.1690,-82.9260,27.58,1111122 
COMPS,ioos:station:USF.COMPS:C10:1,2015-06-06T10:05:00Z,27.1690,-82.9260,27.5,1111122 
COMPS,ioos:station:USF.COMPS:C10:1,2015-06-06T10:35:00Z,27.1690,-82.9260,27.48,1111122 
COMPS,ioos:station:USF.COMPS:C10:1,2015-06-06T11:05:00Z,27.1690,-82.9260,27.49,1111122 
COMPS,ioos:station:USF.COMPS:C10:1,2015-06-06T11:35:00Z,27.1690,-82.9260,27.53,1111122 
COMPS,ioos:station:USF.COMPS:C10:1,2015-06-06T12:05:00Z,27.1690,-82.9260,27.53,1111122 
COMPS,ioos:station:USF.COMPS:C10:1,2015-06-06T12:35:00Z,27.1690,-82.9260,27.59,1111122 
COMPS,ioos:station:USF.COMPS:C10:1,2015-06-06T13:05:00Z,27.1690,-82.9260,27.63,1111122 
COMPS,ioos:station:USF.COMPS:C10:1,2015-06-06T13:35:00Z,27.1690,-82.9260,27.57,1111122 
COMPS,ioos:station:USF.COMPS:C10:1,2015-06-06T14:05:00Z,27.1690,-82.9260,27.61,1111122 
COMPS,ioos:station:USF.COMPS:C10:1,2015-06-06T22:15:00Z,27.1690,-82.9260,27.64,1111122 
COMPS,ioos:station:USF.COMPS:C10:1,2015-06-06T22:25:00Z,27.1690,-82.9260,27.66,1111122 
COMPS,ioos:station:USF.COMPS:C10:1,2015-06-06T22:55:00Z,27.1690,-82.9260,27.62,1111122 
COMPS,ioos:station:USF.COMPS:C10:1,2015-06-06T23:25:00Z,27.1690,-82.9260,28.06,1111122 
COMPS,ioos:station:USF.COMPS:C10:1,2015-06-06T23:55:00Z,27.1690,-82.9260,28.32,1111122 
COMPS,ioos:station:USF.COMPS:C10:1,2015-06-07T00:25:00Z,27.1690,-82.9260,27.69,1111122 
COMPS,ioos:station:USF.COMPS:C10:1,2015-06-07T00:55:00Z,27.1690,-82.9260,27.57,1111122 
COMPS,ioos:station:USF.COMPS:C10:1,2015-06-07T07:25:00Z,27.1690,-82.9260,27.25,1111122 
COMPS,ioos:station:USF.COMPS:C10:1,2015-06-07T07:55:00Z,27.1690,-82.9260,27.26,1111122 
COMPS,ioos:station:USF.COMPS:C10:1,2015-06-07T08:25:00Z,27.1690,-82.9260,27.22,1111122 
COMPS,ioos:station:USF.COMPS:C10:1,2015-06-07T08:55:00Z,27.1690,-82.9260,27.2,1111122 
COMPS,ioos:station:USF.COMPS:C10:1,2015-06-07T09:25:00Z,27.1690,-82.9260,27.17,1111122 
COMPS,ioos:station:USF.COMPS:C10:1,2015-06-07T09:55:00Z,27.1690,-82.9260,27.2,1111122 
COMPS,ioos:station:USF.COMPS:C10:1,2015-06-07T15:25:00Z,27.1690,-82.9260,27.05,1111122 
COMPS,ioos:station:USF.COMPS:C10:1,2015-06-07T15:55:00Z,27.1690,-82.9260,27.24,1111122 
COMPS,ioos:station:USF.COMPS:C10:1,2015-06-07T16:25:00Z,27.1690,-82.9260,27.4,1111122 
COMPS,ioos:station:USF.COMPS:C10:1,2015-06-07T16:55:00Z,27.1690,-82.9260,27.58,1111122 
COMPS,ioos:station:USF.COMPS:C10:1,2015-06-07T17:25:00Z,27.1690,-82.9260,27.69,1111122 
COMPS,ioos:station:USF.COMPS:C10:1,2015-06-07T17:55:00Z,27.1690,-82.9260,27.78,1111122 
COMPS,ioos:station:USF.COMPS:C10:1,2015-06-07T18:25:00Z,27.1690,-82.9260,27.94,1111122 
COMPS,ioos:station:USF.COMPS:C10:1,2015-06-07T18:55:00Z,27.1690,-82.9260,28.13,1111122 
COMPS,ioos:station:USF.COMPS:C10:1,2015-06-08T00:25:00Z,27.1690,-82.9260,28.59,1111122 
COMPS,ioos:station:USF.COMPS:C10:1,2015-06-08T03:25:00Z,27.1690,-82.9260,27.3,1111122 
COMPS,ioos:station:USF.COMPS:C10:1,2015-06-08T03:55:00Z,27.1690,-82.9260,27.15,1111122 
COMPS,ioos:station:USF.COMPS:C10:1,2015-06-08T09:25:00Z,27.1690,-82.9260,26.59,1111122 
COMPS,ioos:station:USF.COMPS:C10:1,2015-06-08T10:55:00Z,27.1690,-82.9260,26.59,1111122 
COMPS,ioos:station:USF.COMPS:C10:1,2015-06-08T11:25:00Z,27.1690,-82.9260,26.66,1111122 
COMPS,ioos:station:USF.COMPS:C10:1,2015-06-08T11:55:00Z,27.1690,-82.9260,26.76,1111122 
COMPS,ioos:station:USF.COMPS:C10:1,2015-06-08T12:25:00Z,27.1690,-82.9260,26.6,1111122 